Wetbulb
71.93 71.98 71.32 71.86 72.49 72.20 71.83 70.60 68.41 65.48 64.60 66.77 68.46 70.98 71.48 70.44 70.28 70.79 70.00 72.01 70.83 71.38 71.10 70.96 71.70 72.50 73.26 73.82 73.99 74.12 74.47 74.63 74.76 74.51 74.52 75.09 75.66 76.24
71.80 71.12 71.21 71.76 72.35 72.02 70.94 70.44 70.33 67.80 66.30 68.31 69.36 70.01 70.99 70.12 69.52 69.02 69.07 71.06 70.58 70.50 70.64 69.84 70.31 71.05 71.45 71.53 72.03 72.47 73.04 73.26 73.61 73.87 73.75 73.83 74.12 74.51
67.61 69.34 70.04 71.14 71.14 71.86 71.66 70.06 70.09 69.20 67.96 69.09 69.67 71.30 69.36 68.61 69.67 69.85 69.44 68.60 71.66 70.18 69.65 69.25 68.81 69.12 69.81 70.50 70.75 70.94 71.30 71.31 71.68 72.43 73.15 73.46 73.48 73.62
65.94 65.55 66.04 68.47 68.96 70.59 70.89 70.51 69.54 69.87 68.57 68.03 69.08 70.13 69.18 69.90 69.38 68.07 69.84 74.18 74.13 72.48 69.00 68.46 68.01 67.85 67.80 68.19 68.55 68.50 68.07 68.34 68.97 70.12 71.36 72.23 72.61 72.81
62.79 62.31 62.99 65.46 65.01 68.21 68.95 69.36 69.70 70.35 69.59 68.37 68.61 69.58 70.47 70.30 70.15 71.07 72.04 72.81 74.78 72.77 70.31 67.64 67.67 67.53 67.11 66.14 65.87 65.33 64.26 64.29 65.34 66.54 67.67 68.95 70.35 71.18
62.68 62.59 62.72 62.75 63.34 66.28 65.90 67.71 68.77 68.16 67.96 67.44 67.60 68.10 68.75 70.06 70.44 69.52 70.10 70.82 71.82 74.08 72.53 70.93 69.12 68.52 67.44 65.86 65.73 65.11 62.44 61.77 61.75 62.77 63.71 64.85 66.40 67.92
62.45 63.36 63.72 64.82 67.90 66.09 66.16 66.39 67.29 67.02 66.43 66.18 66.24 66.65 67.42 66.97 66.90 68.01 68.34 69.73 70.72 71.63 71.38 70.85 67.13 66.84 69.47 67.15 68.52 67.42 64.37 62.39 61.30 60.46 60.55 60.84 61.78 63.32
60.73 63.01 64.00 66.16 64.85 66.60 67.55 67.37 68.00 66.50 65.22 65.34 65.66 65.88 65.84 66.70 67.98 67.46 67.19 66.74 65.86 70.83 69.11 69.08 67.06 66.39 69.06 69.35 69.00 66.23 64.48 63.24 61.91 60.72 60.22 59.48 59.69 60.35
61.71 63.15 64.24 66.10 63.20 63.18 64.64 66.28 66.54 66.64 66.42 66.34 65.16 65.68 65.75 66.79 66.68 65.94 66.54 66.92 66.22 69.27 68.74 67.67 69.25 68.30 69.63 69.81 65.21 63.93 63.47 63.03 62.78 61.10 60.50 59.70 59.36 59.14
60.43 62.77 63.63 61.63 59.61 59.83 61.43 64.09 64.60 65.83 66.53 67.02 65.93 66.95 67.26 67.89 67.13 66.50 66.12 66.32 67.51 68.48 68.21 65.50 67.78 68.14 69.20 67.26 65.02 64.36 63.25 62.84 61.07 60.71 59.96 59.03 57.74 57.62
59.13 62.63 60.58 58.77 58.42 57.40 58.76 59.80 62.76 64.17 64.37 64.79 64.08 63.35 62.92 62.19 63.20 62.78 60.85 60.46 60.25 62.80 66.06 66.00 65.56 66.73 68.29 68.76 67.29 63.87 61.90 60.53 60.80 61.01 60.04 58.42 57.63 58.01
57.37 60.85 60.61 59.47 57.06 56.98 57.04 58.59 58.18 59.49 59.94 61.89 63.59 64.48 64.81 65.43 63.78 62.86 62.74 62.07 61.19 61.28 64.30 63.30 63.48 64.48 62.90 66.93 68.37 67.89 67.96 62.14 59.09 59.11 58.35 58.05 57.26 62.19
56.26 58.78 58.55 57.81 55.68 54.83 56.12 57.81 57.37 58.07 60.10 61.46 62.53 62.73 63.40 63.51 62.95 63.11 64.94 64.17 62.95 60.30 64.63 64.47 63.14 63.06 62.60 63.29 65.69 67.40 68.70 68.75 67.37 65.40 55.63 55.99 55.47 59.13
56.04 57.43 57.93 55.12 54.65 55.45 58.33 57.19 57.73 59.84 59.88 59.74 59.02 59.00 59.60 61.09 62.65 64.19 65.00 65.09 65.10 64.23 65.05 64.24 62.54 62.38 61.44 60.48 61.47 64.94 65.88 67.20 68.48 68.41 68.82 62.11 53.80 55.07
53.55 54.71 55.64 54.61 55.17 57.37 57.53 57.62 57.55 56.12 56.81 56.42 56.14 55.58 57.04 59.05 58.96 60.50 59.48 59.56 60.23 61.13 62.69 62.14 61.61 60.46 61.11 60.24 60.47 61.84 63.24 64.55 66.50 67.19 68.19 67.51 66.40 60.53
50.37 50.98 54.49 56.28 56.84 56.92 55.96 56.46 56.58 55.37 52.88 52.54 53.00 54.38 54.99 53.87 53.75 54.23 54.71 55.39 55.87 56.34 58.49 59.45 58.46 58.62 56.92 57.71 59.14 58.94 61.67 61.37 63.93 64.62 66.34 67.24 67.85 66.19
45.26 50.68 53.46 55.36 54.34 53.54 53.40 53.79 54.51 54.21 52.34 52.61 51.98 51.77 52.72 52.31 51.99 52.10 52.01 51.93 50.34 50.67 51.48 52.87 52.86 52.46 53.74 55.29 54.13 55.76 55.74 55.96 56.54 57.53 59.47 60.45 63.73 67.15
45.87 48.66 49.72 49.89 50.36 49.11 48.58 48.15 48.91 51.24 50.13 49.71 49.15 49.44 48.67 48.40 48.10 48.62 48.44 47.31 46.62 46.88 47.37 48.16 49.79 50.05 50.85 51.45 55.84 51.06 51.07 51.01 52.56 54.26 55.91 57.15 57.95 60.98
45.13 48.66 48.50 48.67 48.48 48.73 48.25 48.28 47.48 49.20 48.30 48.70 48.72 48.51 48.26 47.84 47.50 46.65 46.59 46.11 45.57 44.90 46.33 47.74 47.97 45.93 44.02 43.14 47.34 52.31 47.92 49.69 50.55 51.30 51.69 52.05 54.38 57.29
45.21 47.55 47.00 47.48 48.48 48.24 48.47 48.51 48.87 49.28 47.72 48.06 48.26 48.13 47.85 46.87 46.36 45.86 45.81 44.38 43.60 43.71 44.41 45.98 45.90 45.21 43.61 43.77 44.82 46.83 49.49 46.92 47.13 47.15 47.79 50.45 51.81 54.37
48.17 47.37 48.76 48.38 48.67 48.08 48.65 49.10 49.00 49.15 48.81 48.49 48.77 47.49 46.95 45.84 44.97 45.55 45.40 45.81 45.37 43.41 42.45 43.20 45.12 50.64 46.80 46.61 45.19 45.92 48.01 49.42 49.27 47.49 47.76 47.29 46.69 48.64
48.58 47.85 48.87 48.25 48.84 49.20 49.63 49.35 49.44 48.77 48.44 47.65 47.54 46.92 46.44 45.49 45.11 45.11 44.75 44.25 43.78 43.69 43.65 45.18 45.40 45.39 45.04 45.57 44.94 45.60 46.13 48.00 50.03 51.47 52.21 51.15 47.28 46.37
48.97 48.36 48.68 48.50 49.01 49.98 50.35 48.90 48.06 48.50 48.27 47.98 47.07 45.35 44.86 44.34 44.70 44.97 44.64 44.56 44.13 43.64 43.25 44.12 44.95 44.88 44.92 45.23 45.68 45.20 45.01 45.38 46.39 47.20 47.67 51.15 51.72 52.24
MSLP
1013.82 1013.47 1013.28 1012.99 1013.01 1013.00 1013.12 1013.36 1013.72 1013.85 1013.49 1013.12 1013.02 1013.01 1012.74 1012.39 1011.89 1012.05 1012.10 1011.45 1012.03 1011.82 1012.02 1012.33 1012.30 1012.65 1012.78 1013.03 1013.27 1013.57 1013.89 1014.09 1014.43 1014.78 1014.87 1015.27 1015.59 1015.88
1013.72 1013.39 1013.19 1012.88 1012.67 1012.63 1012.64 1012.79 1012.79 1013.08 1013.21 1012.64 1012.61 1012.51 1012.53 1012.50 1012.12 1012.15 1011.79 1011.63 1011.42 1011.35 1011.43 1011.56 1011.54 1011.84 1012.20 1012.41 1012.70 1013.04 1013.15 1013.35 1013.69 1014.07 1014.28 1014.60 1014.96 1015.26
1013.74 1013.54 1013.38 1013.03 1012.77 1012.41 1012.33 1012.42 1012.35 1012.41 1012.60 1012.21 1012.03 1011.86 1012.37 1012.60 1012.51 1012.10 1011.72 1011.43 1010.95 1010.67 1010.86 1010.80 1010.85 1011.12 1011.43 1011.65 1011.79 1012.29 1012.49 1012.60 1012.92 1013.28 1013.63 1013.89 1014.16 1014.46
1014.17 1014.01 1013.83 1013.41 1013.12 1012.54 1012.24 1012.28 1012.10 1011.87 1012.11 1011.95 1011.67 1011.55 1011.70 1011.91 1011.84 1011.48 1011.21 1010.61 1010.29 1009.91 1010.14 1010.15 1010.29 1010.79 1011.06 1011.14 1011.27 1011.70 1011.96 1012.08 1012.28 1012.56 1012.86 1013.14 1013.41 1013.72
1014.33 1014.10 1013.85 1013.57 1013.29 1012.85 1012.43 1012.07 1011.90 1011.58 1011.56 1011.71 1011.51 1011.15 1010.96 1010.88 1010.86 1010.60 1010.32 1010.16 1009.78 1009.58 1009.37 1009.40 1009.77 1009.84 1009.79 1010.38 1010.85 1011.13 1011.34 1011.41 1011.58 1011.81 1012.10 1012.43 1012.76 1012.97
1014.29 1013.91 1013.66 1013.45 1013.26 1012.97 1012.54 1012.00 1011.54 1011.42 1011.31 1011.33 1011.30 1011.09 1010.89 1010.40 1010.40 1010.34 1009.86 1009.47 1009.31 1008.96 1009.01 1008.86 1009.23 1009.26 1009.51 1009.92 1010.41 1010.46 1010.57 1010.72 1010.81 1011.01 1011.22 1011.51 1011.81 1012.13
1014.46 1013.96 1013.53 1013.11 1012.80 1012.53 1012.26 1011.79 1011.36 1011.22 1011.26 1011.22 1011.09 1010.91 1010.72 1010.59 1010.43 1009.98 1009.79 1009.34 1009.03 1008.82 1008.76 1008.92 1008.90 1008.78 1008.60 1008.71 1009.02 1009.16 1009.64 1009.96 1009.95 1010.15 1010.58 1010.53 1010.83 1011.10
1014.54 1013.77 1013.11 1012.60 1012.39 1012.26 1011.95 1011.59 1011.21 1011.17 1011.09 1011.13 1010.95 1010.69 1010.40 1010.34 1010.20 1010.05 1009.86 1009.74 1009.35 1008.46 1008.88 1008.68 1008.62 1008.47 1008.24 1008.10 1007.99 1008.29 1008.65 1008.97 1009.18 1009.04 1009.42 1009.71 1010.25 1010.46
1014.23 1013.66 1012.96 1012.56 1012.62 1012.44 1012.07 1011.56 1011.18 1010.76 1010.59 1010.50 1010.54 1010.28 1009.98 1009.74 1009.72 1009.61 1009.66 1009.60 1009.42 1008.89 1008.85 1008.70 1008.52 1008.44 1007.91 1007.77 1007.54 1007.67 1007.70 1007.86 1007.98 1007.80 1008.22 1008.55 1009.09 1009.62
1014.39 1013.84 1013.58 1013.42 1013.22 1012.86 1012.26 1011.69 1011.25 1010.68 1010.17 1009.91 1009.99 1009.67 1009.45 1009.17 1009.21 1009.28 1009.38 1009.29 1008.97 1008.59 1008.54 1008.71 1008.09 1008.06 1007.49 1007.31 1007.39 1007.57 1007.22 1006.64 1006.81 1006.67 1007.18 1007.68 1007.97 1008.59
1014.56 1014.20 1013.93 1013.67 1013.42 1013.06 1012.58 1012.11 1011.56 1010.85 1010.19 1009.82 1009.45 1009.21 1009.11 1008.82 1009.01 1009.10 1009.27 1009.44 1009.20 1008.84 1008.43 1008.26 1008.14 1007.95 1007.36 1006.97 1006.50 1006.40 1006.25 1006.15 1006.10 1006.16 1006.49 1007.14 1007.76 1008.10
1014.57 1014.27 1014.05 1013.83 1013.50 1013.26 1013.00 1012.65 1012.14 1011.42 1010.97 1010.25 1009.79 1009.49 1009.29 1009.22 1009.01 1009.29 1009.32 1009.39 1009.49 1009.03 1008.48 1008.52 1008.19 1008.15 1007.85 1006.89 1006.77 1006.52 1006.51 1006.58 1006.59 1006.48 1006.49 1006.58 1007.23 1007.95
1015.07 1014.61 1014.39 1014.00 1013.49 1013.19 1013.00 1012.71 1012.32 1011.68 1011.11 1010.84 1010.50 1010.41 1009.99 1009.68 1009.54 1009.56 1009.61 1009.76 1009.54 1009.34 1008.44 1008.50 1008.39 1008.36 1008.40 1008.04 1007.32 1007.10 1006.84 1006.42 1006.32 1006.12 1006.10 1006.12 1006.41 1006.76
1015.28 1014.89 1014.61 1014.23 1013.72 1013.35 1013.03 1012.62 1012.19 1011.74 1011.48 1011.42 1011.28 1011.09 1010.79 1010.47 1009.93 1009.58 1009.52 1009.60 1009.33 1008.84 1008.28 1008.41 1008.49 1008.42 1008.29 1008.15 1007.83 1007.03 1006.79 1006.44 1006.12 1005.82 1005.59 1005.27 1005.82 1006.15
1015.49 1015.20 1014.72 1014.35 1013.95 1013.62 1013.34 1012.89 1012.51 1012.23 1012.05 1011.94 1011.89 1011.78 1011.51 1011.12 1010.65 1010.28 1009.84 1009.49 1008.90 1008.47 1008.34 1008.49 1008.84 1008.73 1008.64 1008.50 1008.21 1007.61 1006.92 1006.07 1005.77 1005.64 1005.50 1005.45 1005.48 1005.57
1015.50 1014.91 1014.59 1014.39 1013.95 1013.59 1013.28 1013.03 1012.79 1012.64 1012.60 1012.50 1012.36 1012.03 1011.57 1011.23 1011.04 1010.61 1010.35 1009.83 1009.54 1009.27 1008.79 1008.87 1008.97 1008.97 1008.84 1008.55 1008.17 1007.89 1007.38 1007.00 1006.34 1006.09 1005.57 1004.99 1004.65 1004.47
1015.73 1014.90 1014.55 1014.20 1013.98 1013.70 1013.47 1013.22 1013.01 1012.97 1012.86 1012.74 1012.68 1012.39 1012.10 1011.86 1011.57 1011.05 1010.77 1010.68 1010.56 1010.26 1009.62 1009.10 1008.78 1008.77 1008.68 1008.55 1008.34 1008.21 1007.94 1007.65 1007.21 1006.96 1006.34 1005.67 1004.95 1004.45
1015.73 1015.43 1014.79 1014.47 1014.38 1014.11 1013.97 1013.81 1013.66 1013.47 1013.22 1013.02 1012.95 1012.78 1012.67 1012.47 1012.25 1011.96 1011.69 1011.59 1011.52 1011.02 1010.56 1010.11 1009.41 1008.96 1008.69 1008.41 1008.39 1008.48 1008.40 1008.20 1007.54 1006.93 1006.51 1006.06 1005.00 1004.26
1015.73 1015.28 1014.87 1014.59 1014.49 1014.27 1014.14 1014.06 1013.99 1013.73 1013.29 1013.17 1013.19 1013.04 1012.90 1012.80 1012.69 1012.56 1012.31 1012.07 1011.90 1011.72 1011.39 1010.96 1010.70 1010.55 1010.26 1009.87 1009.31 1008.87 1009.02 1008.29 1007.68 1007.11 1006.93 1006.47 1005.62 1004.59
1015.26 1015.02 1014.63 1014.40 1014.37 1014.30 1014.19 1014.09 1014.00 1013.64 1013.43 1013.22 1013.21 1013.17 1013.12 1013.08 1013.00 1012.89 1012.68 1012.55 1012.34 1012.03 1011.83 1011.54 1011.20 1011.05 1011.02 1010.39 1009.58 1009.15 1008.73 1008.46 1007.90 1007.23 1006.68 1005.91 1005.16 1004.42
1014.79 1014.52 1014.37 1014.35 1014.26 1014.06 1013.88 1013.76 1013.63 1013.53 1013.31 1013.16 1013.09 1013.04 1013.02 1013.03 1012.98 1012.83 1012.65 1012.41 1012.15 1011.92 1011.68 1011.36 1011.01 1010.73 1010.38 1009.91 1009.35 1008.36 1007.76 1007.50 1007.24 1006.90 1006.35 1005.86 1004.96 1003.67
1014.18 1014.04 1013.92 1013.78 1013.73 1013.68 1013.62 1013.48 1013.41 1013.25 1013.16 1012.93 1012.82 1012.87 1012.84 1012.77 1012.73 1012.62 1012.41 1012.16 1011.81 1011.45 1011.02 1010.58 1010.23 1010.15 1010.01 1009.62 1008.85 1008.07 1007.34 1006.83 1006.38 1005.77 1005.47 1005.26 1004.95 1003.48
1013.33 1013.30 1013.33 1013.27 1013.14 1013.10 1013.11 1013.08 1012.97 1012.85 1012.62 1012.47 1012.55 1012.57 1012.44 1012.42 1012.21 1012.17 1011.98 1011.67 1011.33 1010.90 1010.48 1009.96 1009.64 1009.41 1009.17 1008.76 1008.22 1007.45 1006.66 1006.09 1005.77 1004.83 1003.89 1003.77 1003.41 1002.68
Wind_Speed
5 5 4 4 4 4 4 3 4 4 4 3 3 5 4 6 13 7 12 5 10 14 14 14 14 14 14 15 15 15 15 14 15 15 16 16 17 18
4 6 4 3 4 4 4 4 3 4 5 4 4 5 6 5 7 8 7 8 13 15 16 17 15 15 16 15 14 15 16 15 15 15 16 16 16 16
6 6 6 6 5 4 3 3 4 3 5 4 5 4 7 8 8 11 10 9 9 13 16 16 15 15 16 16 16 17 16 15 14 15 16 17 17 17
7 7 6 7 8 7 3 5 4 4 4 9 4 3 5 8 8 9 10 9 8 11 17 15 12 11 12 14 15 15 16 15 14 15 16 17 18 17
6 6 6 6 7 6 6 5 4 3 3 4 5 2 4 4 5 6 6 5 6 9 10 10 14 14 15 12 13 15 16 16 16 16 16 16 16 17
8 7 7 7 7 6 8 7 5 4 3 2 2 3 3 4 3 3 6 2 4 5 2 6 10 12 12 13 14 18 16 17 16 17 17 16 17 16
9 8 7 8 11 9 4 6 6 3 3 3 3 2 2 2 3 2 3 3 4 4 4 4 4 4 5 9 12 16 16 17 17 17 17 18 18 18
8 10 9 11 8 7 8 9 5 3 4 3 4 4 4 3 2 3 2 2 4 3 1 3 3 3 4 4 9 11 12 17 19 18 19 18 18 18
8 7 7 6 9 6 8 9 9 9 9 5 5 5 5 4 3 3 4 4 4 5 1 4 3 4 5 6 12 14 18 18 19 17 17 18 19 19
8 8 6 6 7 8 8 8 7 7 7 3 6 7 7 6 5 3 3 4 3 4 3 4 3 4 3 5 10 15 17 14 13 11 14 17 18 18
7 5 5 7 12 13 6 7 8 7 9 12 9 9 11 10 3 1 3 1 3 3 3 1 2 2 3 4 5 13 18 14 14 14 11 12 12 13
7 6 7 9 11 10 5 5 7 7 8 10 9 7 8 11 7 3 2 2 2 3 4 3 2 3 5 3 1 2 3 9 11 12 12 12 12 8
4 5 6 16 10 6 5 4 4 6 8 5 4 6 6 6 5 5 4 2 2 3 5 2 2 2 2 4 3 2 2 3 4 5 12 13 14 14
4 4 5 12 12 9 7 11 12 7 4 4 4 4 4 4 6 4 4 5 6 6 6 3 2 2 2 2 4 3 4 4 3 4 3 2 8 14
4 8 8 8 7 6 9 10 8 6 5 5 4 4 4 4 6 5 6 5 5 4 5 6 5 5 3 3 4 4 4 3 4 4 4 3 4 4
10 7 6 7 4 4 3 4 3 3 3 3 3 3 4 4 4 3 3 4 3 5 5 7 7 5 4 3 3 4 5 4 7 7 6 4 4 4
8 3 2 2 4 4 5 5 4 4 4 4 3 4 4 4 5 4 5 4 4 6 8 8 9 5 3 4 4 4 5 6 7 8 8 8 7 5
2 3 3 2 4 3 4 4 4 6 4 4 5 4 4 4 5 4 4 4 4 5 6 5 8 8 5 4 10 6 5 7 9 9 7 7 8 7
2 4 3 2 2 3 3 3 3 3 3 4 3 4 4 4 5 4 4 4 5 4 5 7 5 7 7 7 4 13 10 8 8 8 7 8 10 10
3 3 1 1 1 2 2 3 3 4 2 3 3 3 3 3 3 4 4 3 3 3 4 5 3 5 4 6 8 7 5 7 8 9 11 10 11 18
2 0 2 1 0 1 2 2 3 4 3 3 1 1 1 1 2 3 4 5 5 2 4 5 5 10 4 5 7 9 8 10 10 10 10 10 13 13
3 3 2 1 3 3 3 3 3 4 4 3 2 1 1 1 2 4 5 5 5 5 5 6 5 4 4 7 10 14 11 10 11 17 16 16 11 9
5 4 4 4 4 5 4 4 3 4 4 4 2 2 1 2 4 4 5 5 5 5 4 8 5 3 6 8 12 11 17 15 11 13 12 14 21 26
Wind_Direction
312 292 284 280 277 260 243 199 208 278 283 247 199 188 208 227 224 228 241 207 240 236 230 221 210 212 212 211 214 220 228 222 221 217 214 217 222 225
320 321 310 292 284 275 264 263 226 214 254 192 224 181 189 224 260 241 268 271 272 256 226 218 211 207 212 218 224 225 217 216 217 216 214 213 216 219
333 331 329 324 299 291 287 277 266 193 243 267 236 202 179 210 226 244 252 263 265 245 232 225 215 210 213 216 215 221 220 215 216 219 217 214 213 216
342 356 339 338 339 315 302 289 269 258 218 265 265 244 209 209 226 219 236 246 245 234 230 227 212 221 231 220 216 219 218 213 215 219 219 216 218 217
328 328 321 329 326 316 311 291 279 280 261 234 267 244 250 230 247 253 244 236 239 253 256 232 200 217 228 224 219 221 221 218 216 216 218 216 219 217
319 314 308 303 296 304 306 286 273 283 292 285 252 260 248 274 235 262 285 251 245 252 315 198 174 201 213 222 235 238 227 228 220 217 215 216 218 218
305 299 283 274 288 291 281 309 298 301 306 297 282 257 269 305 288 285 269 288 270 216 219 200 200 205 209 223 235 231 232 229 224 220 227 219 216 218
293 294 283 286 292 331 346 344 303 290 283 262 270 271 258 247 237 261 289 312 313 337 31 287 176 257 248 233 218 221 219 224 227 211 220 219 226 224
297 305 322 7 19 356 329 315 311 302 238 240 256 258 264 229 231 266 235 227 234 271 297 277 181 233 242 248 244 237 237 231 226 213 216 216 222 227
341 335 27 17 8 353 332 332 323 303 297 260 225 253 242 256 235 231 263 282 280 275 196 248 195 243 241 243 238 244 260 263 209 212 218 219 219 223
338 5 30 14 355 360 348 344 337 330 343 324 298 294 299 290 250 352 308 352 312 300 325 190 319 272 245 246 243 253 260 306 306 288 255 245 235 235
327 344 24 6 353 360 358 345 340 313 329 330 340 355 17 25 17 324 7 301 301 322 284 25 341 20 328 298 178 80 266 266 265 261 255 232 222 229
318 352 345 342 333 342 331 343 305 308 320 338 22 3 359 7 9 0 345 284 236 259 269 57 314 318 214 305 315 332 259 286 250 233 226 227 205 201
350 357 348 343 355 343 344 347 4 4 4 21 30 9 357 345 326 337 354 341 292 242 310 279 243 246 249 273 272 313 315 266 255 274 274 268 199 220
11 334 333 338 357 355 353 10 9 7 1 15 22 9 347 333 334 349 328 310 318 15 17 43 53 358 345 307 295 301 306 291 276 274 284 250 234 193
344 317 294 306 336 320 335 346 7 28 39 17 356 325 329 358 350 338 335 340 3 338 356 27 33 17 338 318 311 315 318 322 336 338 301 267 265 214
317 287 8 339 348 344 343 339 338 360 17 347 339 344 347 358 347 345 2 354 15 356 359 354 355 349 311 282 316 12 351 348 346 337 339 325 311 268
345 318 317 315 315 335 2 5 20 16 8 11 2 14 17 12 358 352 359 14 4 350 350 332 336 346 355 349 52 9 2 337 329 323 317 311 304 308
225 285 252 282 329 33 32 37 355 332 355 359 1 8 17 7 9 354 350 359 7 353 341 341 22 24 3 327 286 38 330 319 329 326 328 308 301 308
225 260 233 106 76 63 19 357 324 330 312 311 339 7 31 29 1 351 349 348 348 319 341 342 352 359 332 300 303 308 359 315 311 303 306 298 288 286
216 120 73 49 350 234 248 279 292 301 300 280 269 132 32 48 322 313 311 309 315 288 302 304 283 297 278 276 297 299 301 261 257 278 289 291 298 298
196 164 172 225 268 262 258 243 271 294 290 280 267 168 30 339 297 291 287 286 275 255 257 272 271 274 283 300 298 301 302 303 283 264 245 261 275 278
190 193 205 228 245 255 236 228 248 268 272 276 166 172 274 298 285 275 274 273 273 269 263 285 277 265 276 294 290 291 294 300 299 294 286 267 271 272